Tracking 19145 objects as of 26-Apr-2018
HD Live streaming from Space Station
objects crossing your sky now

SL-8 R/B

Track SL-8 R/B now!
10-day predictions


NORAD ID: 13950
Int'l Code: 1983-023B
Perigee: 953.9 km
Apogee: 1,010.5 km
Inclination: 83.0 °
Period: 104.6 minutes
Semi major axis: 7353 km
RCS: 4.7862 m2 (large)
Launch date: March 30, 1983
Source: Commonwealth of Independent States (former USSR) (CIS)
Launch site: PLESETSK MISSILE AND SPACE COMPLEX (PKMTR)

Note: This is a ROCKET BODY
aabbcc
Your satellite tracking list
Your tracking list is empty




NASA's NSSDC Master Catalog

Two Line Element Set (TLE):
1 13950U 83023B   18115.96312698 +.00000162 +00000-0 +14817-3 0  9997
2 13950 082.9514 098.6675 0038469 110.7220 249.8067 13.76864493761846
Source of the keplerian elements: AFSPC